Regional Weather Roundup
Issued by NWS

Current Version | Previous Version | Text Only | Print | Product List | Glossary On
Versions: 1 2 3 4 5 6 7 8 9 10 11 12 13 14 15 16 17 18 19 20 21 22 23 24 25 26 27 28 29 30 31 32 33 34 35 36 37 38 39 40 41 42 43 44 45 46 47 48 49 50
000
ASUS44 KFWD 250115
RWRTX
NORTH TEXAS HOURLY WEATHER ROUNDUP
NATIONAL WEATHER SERVICE FORT WORTH TX
800 PM CDT FRI JUN 24 2016

NOTE: "FAIR" INDICATES FEW OR NO CLOUDS BELOW 12,000 FEET WITH NO
SIGNIFICANT WEATHER AND/OR OBSTRUCTIONS TO VISIBILITY.

TXZ118-119-250200-
DALLAS/FORT WORTH METROPLEX

CITY           SKY/WX    TMP DP  RH WIND       PRES   REMARKS
DFW AIRPORT    PTCLDY    90  65  43 S15       29.95S HX  92
DALLAS LOVE    PTCLDY    91  66  43 S16       29.96R HX  93
FTW MEACHAM    CLEAR     91  66  43 SE17      29.95S HX  93
DAL-EXECUTIVE  PTCLDY    89  65  44 S12G20    29.96S HX  91
FTW-ALLIANCE   PTCLDY    88  66  48 S12G18    29.95S HX  90
FTW-NAS-JRB    PTCLDY    90  64  42 S14       29.95S HX  91
FTW-SPINKS     CLEAR     89  65  45 S9G16     29.97S HX  91
ARLINGTON      CLEAR     93  66  40 SE15      29.96S HX  96
MESQUITE       CLEAR     90  64  43 SE10      29.97S HX  91
LANCASTER      CLEAR     89  67  47 SE6       29.97S HX  92
$$

TXZ091>094-102>105-117-120-121-131>134-250200-
NORTH CENTRAL TEXAS

CITY           SKY/WX    TMP DP  RH WIND       PRES   REMARKS
SHRMAN/DENISON CLEAR     90  65  44 SE10      29.98S HX  91
GAINESVILLE    CLEAR     86  66  50 SE8       29.98S
BOWIE          CLEAR     86  67  52 CALM      29.96S
BRIDGEPORT     PTCLDY    89  68  50 SE8       29.96S HX  93
DECATUR        CLEAR     88  64  44 SE7       29.97S
DENTON         CLEAR     87  67  51 S8        29.95S HX  90
MCKINNEY       CLEAR     87  69  54 SE10      29.97S HX  91
GREENVILLE     CLEAR     86  68  54 SE5       29.99S
ROCKWALL       CLEAR     88  70  55 SE10      29.97R HX  92
TERRELL        CLEAR     88  69  53 S10       29.98S HX  92
WAXAHACHIE     CLEAR     87  69  54 SE10      29.98S HX  91
CLEBURNE       PTCLDY    88  68  51 SE9G16    29.98S HX  91
GRANBURY       PTCLDY    90  67  46 SE12G17   29.96S HX  92
$$

TXZ083>090-098>101-113>116-127>130-139>142-154-155-250200-
WESTERN NORTH TEXAS

CITY           SKY/WX    TMP DP  RH WIND       PRES   REMARKS
WICHITA FALLS  CLEAR     88  63  43 SE15      29.93S
WF-KICKAPOO    CLEAR     91  61  36 SE13G18   29.95S HX  90
VERNON         CLEAR     93  55  27 SE16      29.93R HX  91
ABILENE        CLEAR     88  62  41 S12       29.96S
BRECKENRIDGE   CLEAR     91  60  36 S5        29.94S HX  90
GRAHAM         CLEAR     88  65  45 SE5       29.93S HX  90
MINERAL WELLS  PTCLDY    88  67  49 SE8       29.94S HX  91
STEPHENVILLE   CLEAR     85  65  50 S3        30.00S
COMANCHE       CLEAR     86  68  53 SE10      29.97S
BROWNWOOD      PTCLDY    84  64  51 SE9       29.96S
COLEMAN        PTCLDY    88  58  36 SE10      29.97R
$$

TXZ143>147-156>162-174-175-250200-
CENTRAL TEXAS

CITY           SKY/WX    TMP DP  RH WIND       PRES   REMARKS
WACO           PTCLDY    88  67  49 SE13      29.96S HX  91
WACO-MCGREGOR  PTCLDY    87  70  56 S9        29.97S HX  92
HILLSBORO      CLEAR     88  66  48 SE8       29.97S HX  90
CORSICANA      PTCLDY    89  70  53 SE7       29.99S HX  94
MEXIA          PTCLDY    85  69  60 SE3       29.97F
CAMERON        MOCLDY    88  71  56 S7        29.97R HX  93
TEMPLE         PTCLDY    87  70  56 SE13      29.98S HX  92
KILLEEN        NOT AVBL
KILLEEN-SKYLRK PTCLDY    86  71  60 SE12      29.98S HX  91
GATESVILLE     CLOUDY    86  70  58 S8        29.99S HX  90
HAMILTON       MOCLDY    88  65  45 S13G21    29.99S
LAMPASAS       CLOUDY    84  73  67 SE12      29.98R HX  90
$$

TXZ095>097-106>112-122>126-135>138-148>153-164>167-250200-
EAST TEXAS

CITY           SKY/WX    TMP DP  RH WIND       PRES   REMARKS
PARIS          CLEAR     88  63  42 S7        29.99S
SULPHUR SPRNGS CLEAR     89  64  42 S7        30.01S HX  90
MOUNT PLEASANT CLEAR     87  69  55 SE3       30.01S HX  90
GILMER         CLEAR     87  68  52 CALM      30.00S HX  91
MINEOLA        CLEAR     88  70  55 S3        30.00S HX  92
TYLER          CLEAR     88  67  49 S6        30.00S HX  91
LONGVIEW       PTCLDY    86  71  60 S8        29.99S HX  91
MARSHALL       CLEAR     85  71  61 CALM      30.02S HX  90
ATHENS         PTCLDY    86  68  54 CALM      29.98S
PALESTINE      PTCLDY    87  73  64 SE3       30.00S HX  94
JACKSONVILLE   PTCLDY    86  72  62 CALM      30.03S HX  92
HENDERSON      CLEAR     86  70  59 CALM      30.02R HX  90
CENTER         FAIR      87  74  65 SE3       30.00S HX  96
NACOGDOCHES    PTCLDY    84  70  61 S7        30.00S
LUFKIN         PTCLDY    85  74  69 S7        30.01R HX  92
$$

SUPPLEMENTAL OBSERVATIONS (CENTRAL)

CITY           SKY/WX    TMP DP  RH WIND       PRES   REMARKS
LAKE TEXOMA      N/A     88  66  48 SE8         N/A  HX  90
CADDO GRASSLND   N/A     88  68  51 S5          N/A  HX  91
PAT MAYSE LAKE   N/A     88  66  48 SE8         N/A  HX  90
GREENVILLE       N/A     86  68  54 S3          N/A
CEDAR HILL       N/A     88  68  51 SE8         N/A  HX  91
ATHENS           N/A     88  70  55 SE6         N/A  HX  92
LAKE LIMESTONE   N/A     88  70  55 SE2         N/A  HX  92
MCGREGOR         N/A     86  68  54 S10         N/A
TEMPLE           N/A     86  68  54 S8          N/A
$$

SUPPLEMENTAL OBSERVATIONS (WEST)

CITY           SKY/WX    TMP DP  RH WIND       PRES   REMARKS
MILLERS CREEK    N/A     90  64  43 SE12        N/A  HX  91
POSSUM KINGDOM   N/A     90  61  37 S8          N/A
LBJ GRASSLAND    N/A     88  68  51 SE8         N/A  HX  91
GRANBURY         N/A     90  66  45 SE12G20     N/A  HX  92
COMANCHE         N/A     84  64  51 SE9G22      N/A
HAMBY            N/A     90  63  40 SE7G16      N/A  HX  90
IVIE RESERVOIR   N/A     90  59  35 SE9         N/A
COLORADO BEND    N/A     86  66  51 S9          N/A
$$

SUPPLEMENTAL OBSERVATIONS (EAST)

CITY           SKY/WX    TMP DP  RH WIND       PRES   REMARKS
CLARKSVILLE      N/A     86  66  51 S3G13       N/A
LINDEN           N/A     88  70  55 CALM        N/A  HX  92
CADDO LAKE       N/A     82  75  78 CALM        N/A
GILMER           N/A     88  68  51 S2          N/A  HX  91
HENDERSON        N/A     88  72  58 SE3         N/A  HX  94
LUFKIN           N/A     84  73  70 MISG        N/A  HX  91
N SABINE NF      N/A     82  72  69 MISG        N/A
S SABINE NF      N/A     82  73  74 S1          N/A
$$

SUPPLEMENTAL OBSERVATIONS ARE A COLLECTION OF AUTOMATED INSTRUMENTS
THAT ARE MAINTAINED BY A VARIETY OF FEDERAL AND STATE AGENCIES.
CERTAIN ELEMENTS...SUCH AS HUMIDITY VALUES AND SUSTAINED WIND
SPEEDS...MAY BE APPROXIMATED.




USA.gov is the U.S. government's official web portal to all federal, state and local government web resources and services.